Latest Weather Observations for Essendon Airport

IDV60801

Issued at 8:05 pm EDT Friday 31 October 2014 (issued every 30 minutes, with the page automatically refreshed every 10 minutes)

About weather observations | Map of weather stations | Latest weather observations for VIC | Other Formats
Station Details ID: 086038 Name: ESSENDON AIRPORT Lat: -37.73 Lon: 144.91 Height: 78.4 m
Data from the previous 72 hours. | See also: Recent months at Essendon Airport
Date/Time
EDT
Temp
°C
App
Temp
°C
Dew
Point
Rel
Hum
%
Delta-T
°C
Wind Press
QNH
hPa
Press
MSL
hPa
Rain
since 9 am
mm
Dir
 
Spd
km/h
Gust
km/h
Spd
kts
Gust
kts
31/08:00pm 28.9 24.7 5.7 23 12.2 N 17 24 9 13 998.0 998.0 0.0
31/07:30pm 29.8 25.0 4.4 20 13.2 N 19 24 10 13 998.3 998.3 0.0
31/07:00pm 30.1 25.1 4.7 20 13.3 N 20 33 11 18 998.6 998.6 0.0
31/06:30pm 30.5 25.8 5.0 20 13.3 N 19 30 10 16 999.1 999.1 0.0
31/06:00pm 30.8 24.1 3.8 18 14.0 N 28 50 15 27 999.6 999.6 0.0
31/05:30pm 30.8 24.1 3.8 18 13.9 NNW 28 43 15 23 1000.0 1000.0 0.0
31/05:00pm 31.1 24.0 5.5 20 13.6 N 32 43 17 23 1000.4 1000.4 0.0
31/04:33pm 31.7 24.2 4.5 18 14.2 N 33 56 18 30 1000.6 1000.6 0.0
31/04:30pm 31.3 24.2 5.7 20 13.6 N 32 48 17 26 1000.7 1000.7 0.0
31/04:00pm 31.4 24.0 5.0 19 14.0 NNW 33 46 18 25 1001.1 1001.1 0.0
31/03:30pm 31.1 24.0 6.2 21 13.3 N 33 48 18 26 1001.8 1001.8 0.0
31/03:00pm 30.0 22.1 6.0 22 12.8 NNW 37 56 20 30 1002.6 1002.5 0.0
31/02:41pm 29.7 22.5 5.7 22 12.7 N 33 52 18 28 1002.8 1002.7 0.0
31/02:30pm 29.9 23.3 7.7 25 12.1 N 32 48 17 26 1003.2 1003.1 0.0
31/02:05pm 29.3 22.5 6.7 24 12.1 N 32 50 17 27 1003.5 1003.4 0.0
31/02:00pm 28.7 21.7 6.7 25 11.8 N 33 43 18 23 1003.6 1003.5 0.0
31/01:30pm 28.0 20.7 7.3 27 11.1 N 35 46 19 25 1004.2 1004.1 0.0
31/01:19pm 28.0 22.3 8.3 29 10.8 N 28 46 15 25 1004.7 1004.6 0.0
31/01:00pm 26.6 20.2 8.6 32 9.8 N 32 46 17 25 1005.1 1005.0 0.0
31/12:30pm 25.4 18.5 7.1 31 9.6 N 33 44 18 24 1006.1 1006.0 0.0
31/12:00pm 24.6 18.5 6.4 31 9.5 N 28 37 15 20 1006.7 1006.7 0.0
31/11:30am 24.0 18.1 7.6 35 8.6 N 28 35 15 19 1007.5 1007.5 0.0
31/11:00am 23.6 17.7 7.7 36 8.4 N 28 41 15 22 1007.8 1007.8 0.0
31/10:30am 22.8 18.6 9.9 44 7.0 N 22 33 12 18 1008.2 1008.2 0.0
31/10:00am 21.0 16.8 9.9 49 6.0 N 22 32 12 17 1008.7 1008.7 0.0
31/09:30am 19.5 18.6 11.5 60 4.4 NE 7 13 4 7 1009.0 1009.0 0.0
31/09:00am 16.0 15.2 11.0 72 2.7 E 6 7 3 4 1009.5 1009.5 0.0
31/08:30am 13.3 11.7 10.1 81 1.7 ENE 9 11 5 6 1009.7 1009.7 0.0
31/08:00am 12.7 11.2 10.4 86 1.2 NNE 9 11 5 6 1009.8 1009.8 0.0
31/07:30am 11.3 10.1 10.2 93 0.6 NNE 7 9 4 5 1010.2 1010.2 0.0
31/07:00am 9.3 7.6 8.5 95 0.4 N 7 9 4 5 1010.4 1010.4 0.0
31/06:30am 9.1 7.6 8.3 95 0.4 N 6 7 3 4 1010.5 1010.5 0.0
31/06:00am 9.0 6.9 8.2 95 0.4 N 9 11 5 6 1010.6 1010.6 0.0
31/05:30am 9.1 7.4 8.5 96 0.3 N 7 9 4 5 1010.4 1010.4 0.0
31/05:00am 9.0 6.1 8.2 95 0.4 N 13 15 7 8 1010.4 1010.4 0.0
31/04:30am 9.0 6.9 8.1 94 0.4 NNW 9 11 5 6 1011.0 1011.0 0.0
31/04:00am 9.2 6.7 8.3 94 0.4 NNW 11 11 6 6 1011.1 1011.1 0.0
31/03:30am 9.0 6.8 7.9 93 0.5 NW 9 11 5 6 1011.2 1011.2 0.0
31/03:00am 9.8 7.7 8.2 90 0.8 NW 9 9 5 5 1011.7 1011.7 0.0
31/02:30am 11.6 11.6 9.9 89 0.9 CALM 0 0 0 0 1012.1 1012.1 0.0
31/02:00am 11.2 10.8 9.6 90 0.8 S 2 7 1 4 1012.4 1012.4 0.0
31/01:30am 11.3 11.2 9.4 88 1.0 CALM 0 0 0 0 1013.0 1013.0 0.0
31/01:00am 11.4 9.9 9.3 87 1.1 SSW 7 11 4 6 1013.8 1013.8 0.0
31/12:30am 11.8 10.4 9.5 86 1.2 SSE 7 9 4 5 1013.8 1013.8 0.0
31/12:00am 12.2 10.9 9.8 85 1.2 S 7 11 4 6 1013.9 1013.9 0.0
 
Date/Time
EDT
Temp
°C
App
Temp
°C
Dew
Point
Rel
Hum
%
Delta-T
°C
Wind Press
QNH
hPa
Press
MSL
hPa
Rain
since 9 am
mm
Dir
 
Spd
km/h
Gust
km/h
Spd
kts
Gust
kts
30/11:30pm 12.5 11.1 9.5 82 1.5 SE 7 11 4 6 1013.9 1013.9 0.0
30/11:00pm 12.9 10.8 9.7 81 1.6 S 11 13 6 7 1013.8 1013.8 0.0
30/10:30pm 13.3 11.7 10.1 81 1.7 SSE 9 13 5 7 1014.1 1014.1 0.0
30/10:00pm 13.8 11.0 10.0 78 2.0 SE 15 17 8 9 1013.8 1013.8 0.0
30/09:30pm 14.5 12.2 10.5 77 2.1 S 13 20 7 11 1013.5 1013.5 0.0
30/09:00pm 14.5 11.7 11.5 82 1.6 SSW 17 20 9 11 1013.2 1013.2 0.0
30/08:30pm 14.7 11.3 11.3 80 1.8 SSW 20 28 11 15 1013.1 1013.1 0.0
30/08:00pm 15.7 12.3 10.5 71 2.8 S 19 24 10 13 1012.9 1012.9 0.0
30/07:30pm 16.5 12.9 9.7 64 3.6 S 19 24 10 13 1012.7 1012.7 0.0
30/07:00pm 17.7 13.8 9.3 58 4.4 S 20 26 11 14 1012.7 1012.7 0.0
30/06:30pm 18.1 14.7 9.2 56 4.7 S 17 22 9 12 1012.6 1012.6 0.0
30/06:00pm 18.3 14.4 8.6 53 5.0 S 19 24 10 13 1012.6 1012.6 0.0
30/05:30pm 19.2 15.5 9.4 53 5.2 S 19 24 10 13 1012.5 1012.5 0.0
30/05:00pm 19.5 15.5 9.1 51 5.5 S 20 28 11 15 1012.6 1012.6 0.0
30/04:30pm 20.1 15.6 9.9 52 5.5 S 24 30 13 16 1012.6 1012.6 0.0
30/04:00pm 21.1 17.1 9.0 46 6.4 SSE 20 28 11 15 1012.4 1012.4 0.0
30/03:30pm 20.4 16.4 9.0 48 6.0 S 20 32 11 17 1012.5 1012.5 0.0
30/03:00pm 20.5 16.4 8.8 47 6.2 S 20 28 11 15 1012.8 1012.8 0.0
30/02:30pm 20.5 16.7 9.1 48 6.1 S 19 26 10 14 1013.0 1013.0 0.0
30/02:00pm 20.4 16.5 9.6 50 5.8 S 20 26 11 14 1013.4 1013.4 0.0
30/01:30pm 20.0 16.9 9.0 49 5.8 SSE 15 20 8 11 1013.5 1013.5 0.0
30/01:00pm 20.1 17.9 9.4 50 5.7 SW 11 17 6 9 1013.9 1013.9 0.0
30/12:30pm 19.9 17.8 9.8 52 5.4 W 11 24 6 13 1014.2 1014.2 0.0
30/12:00pm 18.5 16.5 8.7 53 5.1 W 9 20 5 11 1014.6 1014.6 0.0
30/11:30am 17.7 16.2 8.3 54 4.8 W 6 11 3 6 1015.0 1015.0 0.0
30/11:00am 16.8 13.0 7.7 55 4.6 W 17 24 9 13 1015.5 1015.4 0.0
30/10:30am 16.6 13.6 9.1 61 3.9 WSW 15 20 8 11 1015.9 1015.8 0.0
30/10:00am 16.0 13.2 8.5 61 3.8 SW 13 20 7 11 1016.0 1015.9 0.0
30/09:30am 15.1 11.9 8.6 65 3.3 WSW 15 22 8 12 1015.8 1015.7 0.0
30/09:00am 15.1 12.0 8.8 66 3.2 WSW 15 20 8 11 1015.9 1015.8 0.0
30/08:30am 14.8 11.8 9.2 69 2.9 WSW 15 20 8 11 1015.8 1015.7 0.0
30/08:00am 14.2 11.2 9.4 73 2.5 WSW 15 19 8 10 1015.7 1015.6 0.0
30/07:30am 13.9 12.6 11.4 85 1.3 W 9 11 5 6 1015.4 1015.3 0.0
30/07:00am 13.4 12.6 11.6 89 1.0 NW 7 9 4 5 1014.9 1014.9 0.0
30/06:30am 12.9 12.0 11.3 90 0.8 N 7 9 4 5 1014.3 1014.3 0.0
30/06:00am 13.1 12.4 11.3 89 1.0 W 6 7 3 4 1014.5 1014.5 0.0
30/05:30am 13.1 12.2 11.2 88 1.0 W 7 9 4 5 1014.7 1014.7 0.0
30/05:00am 12.9 12.2 11.3 90 0.8 WNW 6 9 3 5 1014.6 1014.6 0.0
30/04:30am 12.6 11.7 10.8 89 0.9 N 6 6 3 3 1014.2 1014.2 0.0
30/04:00am 12.8 11.8 11.0 89 0.9 N 7 11 4 6 1014.3 1014.3 0.0
30/03:30am 13.3 12.9 11.0 86 1.2 N 4 6 2 3 1014.6 1014.6 0.0
30/03:00am 13.5 12.6 11.2 86 1.2 NNW 7 7 4 4 1014.6 1014.6 0.0
30/02:30am 13.4 12.6 11.1 86 1.2 WNW 6 7 3 4 1015.0 1015.0 0.0
30/02:23am 13.4 12.4 11.1 86 1.2 WNW 7 9 4 5 1015.2 1015.1 0.0
30/02:10am 13.5 12.6 11.2 86 1.2 WNW 7 9 4 5 1015.4 1015.3 0.0
30/02:00am 13.4 12.6 10.9 85 1.3 N 6 7 3 4 1015.5 1015.4 0.0
30/01:30am 13.3 13.2 10.7 84 1.4 SSE 2 6 1 3 1015.9 1015.8 0.0
30/01:00am 13.1 13.3 10.5 84 1.4 CALM 0 0 0 0 1016.2 1016.1 0.0
30/12:30am 13.1 12.0 10.6 85 1.3 SE 7 7 4 4 1016.3 1016.2 0.0
30/12:00am 12.0 10.6 9.0 82 1.5 SE 6 7 3 4 1016.4 1016.3 0.0
 
Date/Time
EDT
Temp
°C
App
Temp
°C
Dew
Point
Rel
Hum
%
Delta-T
°C
Wind Press
QNH
hPa
Press
MSL
hPa
Rain
since 9 am
mm
Dir
 
Spd
km/h
Gust
km/h
Spd
kts
Gust
kts
29/11:30pm 12.6 11.2 9.4 81 1.6 SE 7 9 4 5 1016.3 1016.2 0.0
29/11:00pm 13.5 11.9 10.3 81 1.7 SSE 9 11 5 6 1016.4 1016.3 0.0
29/10:30pm 12.9 11.7 10.3 84 1.3 SW 7 11 4 6 1016.4 1016.3 0.0
29/10:00pm 13.3 11.3 10.1 81 1.7 SW 11 13 6 7 1016.5 1016.4 0.0
29/09:30pm 14.4 12.0 10.2 76 2.2 SSW 13 17 7 9 1016.2 1016.1 0.0
29/09:00pm 14.9 12.5 10.1 73 2.5 S 13 19 7 10 1016.0 1015.9 0.0
29/08:30pm 15.4 11.9 10.2 71 2.7 S 19 24 10 13 1015.8 1015.7 0.0
29/08:00pm 16.0 12.3 10.3 69 3.0 S 20 28 11 15 1015.4 1015.3 0.0
29/07:30pm 16.3 11.4 9.9 66 3.4 S 26 33 14 18 1014.8 1014.8 0.0
29/07:00pm 17.0 11.6 9.4 61 4.0 S 28 35 15 19 1014.4 1014.4 0.0
29/06:30pm 20.3 15.9 8.9 48 6.0 S 22 28 12 15 1014.0 1014.0 0.0
29/06:00pm 20.7 17.7 9.3 48 6.1 S 15 19 8 10 1014.0 1014.0 0.0
29/05:30pm 20.6 16.8 8.9 47 6.2 S 19 24 10 13 1014.0 1014.0 0.0
29/05:00pm 21.8 18.2 9.7 46 6.5 S 19 24 10 13 1013.9 1013.9 0.0
29/04:30pm 22.6 21.0 8.7 41 7.4 SSW 7 15 4 8 1013.9 1013.9 0.0
29/04:00pm 22.3 19.6 9.1 43 7.1 WSW 13 24 7 13 1014.2 1014.2 0.0
29/03:30pm 21.8 19.9 9.0 44 6.8 NNE 9 17 5 9 1014.6 1014.6 0.0
29/03:00pm 20.9 18.9 8.5 45 6.5 NE 9 17 5 9 1015.3 1015.2 0.0
29/02:30pm 21.3 19.4 8.9 45 6.6 WSW 9 15 5 8 1015.8 1015.7 0.0
29/02:00pm 19.6 17.3 7.4 45 6.2 NW 9 20 5 11 1016.4 1016.3 0.0
29/01:30pm 19.9 18.0 8.9 49 5.8 NW 9 20 5 11 1016.9 1016.8 0.0
29/01:00pm 18.0 15.6 7.1 49 5.5 NW 9 22 5 12 1017.3 1017.2 0.0
29/12:30pm 17.1 14.4 7.5 53 4.8 WNW 11 20 6 11 1017.8 1017.8 0.0
29/12:00pm 16.2 13.0 6.9 54 4.6 NW 13 24 7 13 1018.2 1018.2 0.0
29/11:30am 15.2 11.8 6.0 54 4.4 WNW 13 20 7 11 1018.6 1018.6 0.0
29/11:00am 15.0 11.5 7.1 59 3.9 WNW 15 24 8 13 1018.9 1018.9 0.0
29/10:30am 14.4 10.7 6.3 58 3.9 W 15 22 8 12 1019.1 1019.1 0.0
29/10:00am 14.1 10.1 6.7 61 3.6 W 17 24 9 13 1019.1 1019.1 0.0
29/09:30am 13.6 10.6 7.6 67 3.0 W 13 17 7 9 1019.2 1019.2 0.0
29/09:00am 13.0 10.7 7.5 69 2.7 W 9 15 5 8 1019.1 1019.1 0.0
29/08:30am 12.4 9.7 7.5 72 2.4 WNW 11 15 6 8 1019.0 1019.0 0.0
29/08:00am 11.9 8.9 7.8 76 2.0 NW 13 19 7 10 1018.8 1018.8 0.0
29/07:30am 11.3 8.8 8.0 80 1.6 NW 11 13 6 7 1018.7 1018.7 0.0
29/07:00am 10.3 8.2 8.4 88 0.9 NNW 9 11 5 6 1018.5 1018.5 0.0
29/06:30am 9.7 7.5 8.0 89 0.8 NNW 9 13 5 7 1018.2 1018.2 0.0
29/06:00am 9.4 7.2 8.0 91 0.7 NW 9 11 5 6 1017.9 1017.9 0.0
29/05:30am 9.1 7.2 7.7 91 0.7 NNW 7 9 4 5 1017.6 1017.6 0.0
29/05:00am 9.4 7.6 7.8 90 0.8 NW 7 9 4 5 1017.3 1017.2 0.0
29/04:30am 9.2 6.9 7.6 90 0.8 WNW 9 11 5 6 1017.3 1017.2 0.0
29/04:00am 9.3 7.0 7.4 88 0.9 WNW 9 13 5 7 1017.2 1017.1 0.0
29/03:30am 10.6 8.1 8.2 85 1.2 W 11 13 6 7 1017.3 1017.2 0.0
29/03:00am 10.9 8.0 8.3 84 1.3 WSW 13 17 7 9 1017.2 1017.1 0.0
29/02:30am 12.0 8.1 7.3 73 2.3 SW 17 24 9 13 1017.2 1017.1 0.0
29/02:00am 12.2 9.8 6.9 70 2.5 SW 9 15 5 8 1017.1 1017.0 0.0
29/01:30am 12.2 9.7 6.7 69 2.6 WSW 9 11 5 6 1017.4 1017.4 0.0
29/01:00am 12.3 9.4 6.6 68 2.7 WSW 11 13 6 7 1017.6 1017.6 0.0
29/12:30am 12.3 9.4 6.4 67 2.8 W 11 13 6 7 1017.7 1017.7 0.0
29/12:00am 12.4 8.7 6.5 67 2.8 WSW 15 20 8 11 1017.8 1017.8 0.0
 
Date/Time
EDT
Temp
°C
App
Temp
°C
Dew
Point
Rel
Hum
%
Delta-T
°C
Wind Press
QNH
hPa
Press
MSL
hPa
Rain
since 9 am
mm
Dir
 
Spd
km/h
Gust
km/h
Spd
kts
Gust
kts
28/11:30pm 12.5 8.5 6.5 67 2.9 WSW 17 22 9 12 1017.6 1017.6 0.0
28/11:00pm 12.7 7.7 6.5 66 3.0 SW 22 33 12 18 1017.7 1017.7 0.0
28/10:30pm 12.9 8.0 6.7 66 3.0 WSW 22 30 12 16 1017.7 1017.7 0.0
28/10:00pm 13.2 8.9 7.0 66 3.0 SW 19 26 10 14 1017.5 1017.5 0.0
28/09:30pm 13.3 7.3 7.1 66 3.0 SW 28 37 15 20 1017.3 1017.2 0.0
28/09:00pm 14.5 8.1 5.3 54 4.3 WSW 28 37 15 20 1016.9 1016.8 0.0
28/08:30pm 14.6 9.1 5.9 56 4.2 WSW 24 33 13 18 1016.3 1016.2 0.0

Other Formats:

Comma delimited format used in spreadsheet applications
http://www.bom.gov.au/fwo/IDV60801/IDV60801.95866.axf

JavaScript Object Notation format (JSON) in row-major order
http://www.bom.gov.au/fwo/IDV60801/IDV60801.95866.json